Chester, MD

2:10 AM EST on February 09, 2016 (GMT -0500)
Stevensville

Weather History for KW29 - February, 2013

Change the Weather History Date:

Sunday, February 3, 2013

  Actual Average (KESN) Record (KESN)
Temperature  
Mean Temperature 30 °F -  
Max Temperature 33 °F 46 °F 65 °F (2016)
Min Temperature 26 °F 25 °F 2 °F (1961)
Degree Days  
Heating Degree Days 36    
Moisture  
Dew Point 27 °F    
Average Humidity 87    
Maximum Humidity 100    
Minimum Humidity 64    
Precipitation  
Precipitation 0.00 in - - ()
Sea Level Pressure  
Sea Level Pressure 29.92 in    
Wind  
Wind Speed 2 mph (WSW)    
Max Wind Speed 21 mph    
Max Gust Speed 26 mph    
Visibility 9 miles    
Events      
Averages and records for this station are not official NWS values.
T = Trace of Precipitation, MM = Missing Value Source: NWS Daily Summary

Daily Weather History Graph

Daily Weather History Graph

Search for Another Location

Airport or City:

Trip Planner

Search our weather history database for the weather conditions in past years. The results will help you decide how hot, cold, wet, or windy it might be!

Date:

Astronomy

Feb. 03, 2013 Rise Set
Actual Time 7:09 AM EST 5:29 PM EST
Civil Twilight 6:41 AM EST 5:57 PM EST
Nautical Twilight 6:09 AM EST 6:29 PM EST
Astronomical Twilight 5:38 AM EST 7:00 PM EST
Moon 12:34 AM EST (2/3) 11:05 AM EST (2/3)
Length of Visible Light 11h 15m
Length of Day
10h 19m
Waning Gibbous, 49% of the Moon is Illuminated
Feb 3
Waning Gibbous
Feb 10
New
Feb 17
First Quarter
Feb 25
Full
Mar 4
Last Quarter

Hourly Weather History & Observations

Time (EST) Temp. Windchill Dew Point Humidity Pressure Visibility Wind Dir Wind Speed Gust Speed Precip Events Conditions
12:12 AM 32.0 °F - 28.4 °F 87% 30.02 in 10.0 mi Calm Calm - N/A   Clear
12:33 AM 30.2 °F - 28.4 °F 93% 30.01 in 10.0 mi Calm Calm - N/A   Clear
12:55 AM 30.2 °F - 28.4 °F 93% 30.00 in 10.0 mi Calm Calm - N/A   Clear
1:16 AM 28.4 °F - 28.4 °F 100% 30.00 in 10.0 mi Calm Calm - N/A   Clear
1:37 AM 28.4 °F - 28.4 °F 100% 30.00 in 10.0 mi Calm Calm - N/A   Scattered Clouds
1:59 AM 28.4 °F - 28.4 °F 100% 29.99 in 7.0 mi Calm Calm - N/A   Scattered Clouds
2:20 AM 28.4 °F - 28.4 °F 100% 29.98 in 7.0 mi Calm Calm - N/A   Scattered Clouds
2:41 AM 28.4 °F - 28.4 °F 100% 29.97 in 7.0 mi Calm Calm - N/A   Scattered Clouds
3:03 AM 28.4 °F - 28.4 °F 100% 29.97 in 5.0 mi Calm Calm - N/A   Clear
3:24 AM 28.4 °F - 28.4 °F 100% 29.96 in 3.0 mi Calm Calm - N/A   Clear
3:45 AM 26.6 °F - 26.6 °F 100% 29.95 in 2.0 mi Calm Calm - N/A   Clear
4:07 AM 26.6 °F 22.6 °F 26.6 °F 100% 29.94 in 4.0 mi East 3.5 mph - N/A   Scattered Clouds
4:28 AM 26.6 °F - 26.6 °F 100% 29.94 in 5.0 mi Calm Calm - N/A   Mostly Cloudy
4:49 AM 28.4 °F 23.3 °F 28.4 °F 100% 29.93 in 10.0 mi NE 4.6 mph - N/A   Mostly Cloudy
5:11 AM 28.4 °F - 28.4 °F 100% 29.93 in 5.0 mi Calm Calm - N/A   Scattered Clouds
5:32 AM 28.4 °F - 28.4 °F 100% 29.94 in 4.0 mi Calm Calm - N/A   Mostly Cloudy
5:53 AM 28.4 °F - 28.4 °F 100% 29.94 in 4.0 mi Calm Calm - N/A   Mostly Cloudy
6:15 AM 28.4 °F - 28.4 °F 100% 29.94 in 4.0 mi Calm Calm - N/A   Mostly Cloudy
6:36 AM 28.4 °F - 28.4 °F 100% 29.94 in 4.0 mi Calm Calm - N/A   Scattered Clouds
6:57 AM 28.4 °F - 28.4 °F 100% 29.94 in 5.0 mi Calm Calm - N/A   Mostly Cloudy
7:19 AM 28.4 °F - 28.4 °F 100% 29.94 in 5.0 mi Calm Calm - N/A   Mostly Cloudy
7:40 AM 28.4 °F - 28.4 °F 100% 29.96 in 7.0 mi Calm Calm - N/A   Mostly Cloudy
8:01 AM 28.4 °F 24.6 °F 28.4 °F 100% 29.96 in 7.0 mi East 3.5 mph - N/A   Overcast
8:22 AM 30.2 °F 25.4 °F 28.4 °F 93% 29.96 in 7.0 mi ENE 4.6 mph - N/A   Mostly Cloudy
9:05 AM 30.2 °F 26.7 °F 26.6 °F 86% 29.96 in 10.0 mi NE 3.5 mph - N/A   Scattered Clouds
9:26 AM 30.2 °F 26.7 °F 26.6 °F 86% 29.96 in 10.0 mi East 3.5 mph - N/A   Scattered Clouds
9:48 AM 30.2 °F 25.4 °F 26.6 °F 86% 29.95 in 10.0 mi ENE 4.6 mph - N/A   Mostly Cloudy
10:09 AM 30.2 °F 25.4 °F 24.8 °F 80% 29.94 in 10.0 mi ENE 4.6 mph - N/A   Mostly Cloudy
10:30 AM 32.0 °F - 24.8 °F 75% 29.94 in 10.0 mi Calm Calm - N/A   Scattered Clouds
10:51 AM 32.0 °F - 24.8 °F 75% 29.93 in 10.0 mi Calm Calm - N/A   Scattered Clouds
11:13 AM 32.0 °F - 24.8 °F 75% 29.92 in 10.0 mi Calm Calm - N/A   Scattered Clouds
11:34 AM 32.0 °F 26.4 °F 26.6 °F 80% 29.92 in 10.0 mi West 5.8 mph - N/A   Scattered Clouds
11:55 AM 32.0 °F 28.7 °F 26.6 °F 80% 29.91 in 10.0 mi West 3.5 mph - N/A   Clear
12:16 PM 32.0 °F 27.5 °F 26.6 °F 80% 29.90 in 10.0 mi WNW 4.6 mph - N/A   Clear
12:38 PM 32.0 °F 28.7 °F 26.6 °F 80% 29.89 in 10.0 mi West 3.5 mph - N/A   Clear
12:59 PM 32.0 °F 27.5 °F 24.8 °F 75% 29.88 in 10.0 mi West 4.6 mph - N/A   Clear
1:20 PM 32.0 °F - 23.0 °F 69% 29.87 in 10.0 mi Calm Calm - N/A   Clear
1:41 PM 32.0 °F - 23.0 °F 69% 29.86 in 10.0 mi Calm Calm - N/A   Clear
2:03 PM 32.0 °F 28.7 °F 24.8 °F 75% 29.86 in 10.0 mi West 3.5 mph - N/A   Clear
2:24 PM 32.0 °F - 24.8 °F 75% 29.85 in 10.0 mi Calm Calm - N/A   Scattered Clouds
2:45 PM 32.0 °F - 24.8 °F 75% 29.85 in 10.0 mi Calm Calm - N/A   Scattered Clouds
3:07 PM 32.0 °F - 24.8 °F 75% 29.85 in 10.0 mi Calm Calm - N/A   Clear
3:28 PM 33.8 °F 29.6 °F 24.8 °F 70% 29.85 in 10.0 mi WSW 4.6 mph - N/A   Clear
3:49 PM 33.8 °F 30.8 °F 24.8 °F 70% 29.86 in 10.0 mi WSW 3.5 mph - N/A   Clear
4:10 PM 32.0 °F 27.5 °F 26.6 °F 80% 29.86 in 10.0 mi WSW 4.6 mph - N/A   Scattered Clouds
4:32 PM 32.0 °F 27.5 °F 28.4 °F 87% 29.86 in 10.0 mi SW 4.6 mph - N/A   Mostly Cloudy
4:53 PM 32.0 °F 28.7 °F 28.4 °F 87% 29.86 in 10.0 mi South 3.5 mph - N/A   Scattered Clouds
5:14 PM 32.0 °F 28.7 °F 28.4 °F 87% 29.85 in 10.0 mi South 3.5 mph - N/A   Clear
5:36 PM 32.0 °F - 28.4 °F 87% 29.85 in 10.0 mi Calm Calm - N/A   Scattered Clouds
5:57 PM 32.0 °F - 28.4 °F 87% 29.86 in 10.0 mi Calm Calm - N/A   Clear
6:18 PM 32.0 °F - 28.4 °F 87% 29.86 in 10.0 mi Calm Calm - N/A   Scattered Clouds
6:39 PM 32.0 °F - 28.4 °F 87% 29.86 in 10.0 mi Calm Calm - N/A   Scattered Clouds
7:01 PM 32.0 °F 28.7 °F 28.4 °F 87% 29.86 in 10.0 mi South 3.5 mph - N/A   Scattered Clouds
7:22 PM 32.0 °F 28.7 °F 28.4 °F 87% 29.87 in 10.0 mi SSW 3.5 mph - N/A   Mostly Cloudy
7:43 PM 32.0 °F 27.5 °F 28.4 °F 87% 29.87 in 10.0 mi SW 4.6 mph - N/A   Scattered Clouds
8:04 PM 32.0 °F 28.7 °F 28.4 °F 87% 29.87 in 10.0 mi SW 3.5 mph - N/A   Scattered Clouds
8:26 PM 32.0 °F 26.4 °F 28.4 °F 87% 29.88 in 10.0 mi WSW 5.8 mph - N/A   Scattered Clouds
9:08 PM 32.0 °F 24.2 °F 30.2 °F 93% 29.89 in 10.0 mi WSW 9.2 mph - N/A   Mostly Cloudy
9:30 PM 32.0 °F 24.8 °F 28.4 °F 87% 29.89 in 10.0 mi WSW 8.1 mph - N/A   Mostly Cloudy
9:51 PM 33.8 °F 25.3 °F 30.2 °F 87% 29.89 in 10.0 mi WSW 11.5 mph - N/A   Overcast
10:12 PM 33.8 °F 25.8 °F 30.2 °F 87% 29.90 in 10.0 mi West 10.4 mph 16.1 mph N/A   Overcast
10:34 PM 33.8 °F 24.8 °F 28.4 °F 81% 29.90 in 10.0 mi West 12.7 mph 16.1 mph N/A   Overcast
10:55 PM 33.8 °F 22.2 °F 28.4 °F 81% 29.92 in 10.0 mi WNW 20.7 mph 24.2 mph N/A   Mostly Cloudy
11:16 PM 32.0 °F 20.5 °F 26.6 °F 80% 29.93 in 5.0 mi WNW 18.4 mph 26.5 mph N/A   Mostly Cloudy
11:38 PM 32.0 °F 20.5 °F 23.0 °F 69% 29.93 in 10.0 mi WNW 18.4 mph 23.0 mph N/A   Scattered Clouds
11:59 PM 32.0 °F 20.8 °F 21.2 °F 64% 29.93 in 10.0 mi WNW 17.3 mph 20.7 mph N/A   Scattered Clouds